User: anonymous   Login
Location: Unspecified
(0.0000°N, 0.0000°E)
Time: 16:08:37
(UTC+01:00)
Language:

Ariane H10 - Orbit

View from above orbital plane
View from above orbital plane
View from above satellite
View from above satellite

Ground track
Ground track

The orbit data is extracted from the following two-line orbital elements,

1 19122U 88040B   14350.75536465  .00002095  00000-0  10594-1 0   749
2 19122 006.9979 182.0335 7154109 131.2966 352.4627 02.32531795175621
Epoch (UTC): 16 December 2014 18:07:43
Eccentricity: 0.7154109
inclination: 6.9979°
perigee height: 471 km
apogee height: 34905 km
right ascension of ascending node: 182.0335°
argument of perigee: 131.2966°
revolutions per day: 2.32531795
mean anomaly at epoch: 352.4627°
orbit number at epoch: 17562

The dashed part of the orbit path shows where the satellite is in the earth's shadow,  

DLR